This is the latest recevied weather packets stored in our database for station/object 9W4GWK-G. If no packets are shown the sender has not sent any weather packets the latest 10 day(s).
| Time | Temp. | Humidity | Pressure | Rain* | Wind** | Luminosity | Snow |
|---|---|---|---|---|---|---|---|
| 1777785081 | 32.22° C | 62% | 1010 hPa | - | - | - | - |
| 1777784179 | 32.22° C | 62% | 1010.5 hPa | - | - | - | - |
| 1777783277 | 31.67° C | 61% | 1010.7 hPa | - | - | - | - |
| 1777782375 | 31.67° C | 60% | 1010.9 hPa | - | - | - | - |
| 1777781473 | 31.11° C | 57% | 1011.1 hPa | - | - | - | - |
| 1777780571 | 31.67° C | 59% | 1011.3 hPa | - | - | - | - |
| 1777779669 | 32.22° C | 63% | 1011.5 hPa | - | - | - | - |
| 1777778767 | 32.22° C | 64% | 1011.5 hPa | - | - | - | - |
| 1777777865 | 32.22° C | 64% | 1011.4 hPa | - | - | - | - |
| 1777776963 | 32.22° C | 64% | 1011.5 hPa | - | - | - | - |
| 1777776061 | 32.22° C | 63% | 1011.5 hPa | - | - | - | - |
| 1777775159 | 32.22° C | 63% | 1011.5 hPa | - | - | - | - |
| 1777774257 | 32.22° C | 62% | 1011.4 hPa | - | - | - | - |
| 1777773354 | 31.67° C | 62% | 1011.3 hPa | - | - | - | - |
| 1777772452 | 31.67° C | 62% | 1011.1 hPa | - | - | - | - |
| 1777771550 | 31.67° C | 61% | 1011.1 hPa | - | - | - | - |
| 1777770648 | 31.67° C | 60% | 1010.8 hPa | - | - | - | - |
| 1777769746 | 31.67° C | 65% | 1010.7 hPa | - | - | - | - |
| 1777768844 | 31.67° C | 65% | 1010.5 hPa | - | - | - | - |
| 1777767942 | 31.67° C | 64% | 1010.3 hPa | - | - | - | - |
| 1777767040 | 31.67° C | 65% | 1010 hPa | - | - | - | - |
| 1777766138 | 31.67° C | 63% | 1009.8 hPa | - | - | - | - |
| 1777765236 | 31.67° C | 63% | 1009.7 hPa | - | - | - | - |
| 1777764334 | 31.67° C | 63% | 1009.6 hPa | - | - | - | - |
| 1777763432 | 31.67° C | 62% | 1009.5 hPa | - | - | - | - |
* Rain since midnight (hover to see other rain measurements)
** Current wind speed in m/s (hover to see current wind gust speed)